FW1079 Weather Reports


time (UTC)temp
C
wind
direction
speed
KPH
gust
KPH
rain 1hr
cm
rain 24hr
cm
rain mn
cm
humidity
%
barometer
mb
20260906052456 21 250 3.2 9.7 0.00 0.00 0.00 59 1019.0
20260906051956 21 253 8.0 9.7 0.00 0.00 0.00 59 1019.0
20260906051457 21 264 6.4 11.3 0.00 0.00 0.00 59 1019.0
20260906050956 21 261 8.0 9.7 0.00 0.00 0.00 59 1019.0
20260906050456 20 250 6.4 9.7 0.00 0.00 0.00 60 1019.0
20260906045956 20 264 6.4 9.7 0.00 0.00 0.00 60 1019.0
20260906045457 20 301 6.4 9.7 0.00 0.00 0.00 60 1019.0
20260906044956 20 264 0.0 0.0 0.00 0.00 0.00 60 1019.0
20260906044459 20 257 0.0 0.0 0.00 0.00 0.00 60 1019.0
20260906043956 20 255 0.0 8.0 0.00 0.00 0.00 60 1019.0
20260906043457 20 253 6.4 11.3 0.00 0.00 0.00 60 1019.0
20260906042956 20 277 8.0 11.3 0.00 0.00 0.00 60 1019.0
20260906042456 20 292 0.0 11.3 0.00 0.00 0.00 60 1019.0
20260906041959 20 265 6.4 9.7 0.00 0.00 0.00 61 1019.0
20260906041456 20 260 6.4 9.7 0.00 0.00 0.00 63 1019.0
20260906040957 20 268 0.0 9.7 0.00 0.00 0.00 63 1019.0
20260906040456 20 273 4.8 8.0 0.00 0.00 0.00 63 1019.0
20260906035956 20 275 4.8 11.3 0.00 0.00 0.00 61 1019.0
20260906035459 20 258 8.0 12.9 0.00 0.00 0.00 61 1019.0
20260906034956 20 252 8.0 9.7 0.00 0.00 0.00 61 1019.0
20260906034457 20 275 6.4 9.7 0.00 0.00 0.00 62 1019.0
20260906033956 20 254 8.0 9.7 0.00 0.00 0.00 62 1019.0
20260906033456 20 260 0.0 0.0 0.00 0.00 0.00 63 1018.0
20260906032959 20 299 0.0 8.0 0.00 0.00 0.00 62 1018.0
20260906032459 20 270 6.4 8.0 0.00 0.00 0.00 62 1018.0
20260906031957 20 267 6.4 8.0 0.00 0.00 0.00 62 1018.0
20260906031456 20 248 0.0 9.7 0.00 0.00 0.00 62 1018.0
20260906030956 20 270 3.2 9.7 0.00 0.00 0.00 62 1018.0
20260906030456 20 271 0.0 0.0 0.00 0.00 0.00 62 1018.0
20260906025957 20 268 3.2 9.7 0.00 0.00 0.00 62 1018.0
20260906025456 20 257 0.0 8.0 0.00 0.00 0.00 62 1018.0
20260906024956 20 265 3.2 8.0 0.00 0.00 0.00 63 1018.0
20260906024459 20 275 0.0 8.0 0.00 0.00 0.00 64 1018.0
20260906023956 20 288 0.0 11.3 0.00 0.00 0.00 64 1018.0
20260906023456 20 263 8.0 9.7 0.00 0.00 0.00 64 1018.0
20260906022956 20 281 6.4 9.7 0.00 0.00 0.00 64 1018.0
20260906022457 21 254 4.8 11.3 0.00 0.00 0.00 63 1018.0
20260906021959 21 277 4.8 12.9 0.00 0.00 0.00 62 1018.0
20260906021459 21 270 8.0 12.9 0.00 0.00 0.00 62 1018.0
20260906020956 21 264 8.0 9.7 0.00 0.00 0.00 62 1018.0
20260906020456 21 265 4.8 9.7 0.00 0.00 0.00 63 1018.0
20260906015957 21 259 6.4 9.7 0.00 0.00 0.00 64 1018.0
20260906015456 20 277 6.4 9.7 0.00 0.00 0.00 65 1018.0
20260906014957 21 305 6.4 9.7 0.00 0.00 0.00 64 1018.0
20260906014456 21 273 0.0 4.8 0.00 0.00 0.00 64 1018.0
20260906013956 21 304 0.0 6.4 0.00 0.00 0.00 65 1018.0
20260906013456 21 292 4.8 9.7 0.00 0.00 0.00 64 1018.0
20260906012956 21 271 6.4 11.3 0.00 0.00 0.00 64 1018.0
20260906012500 21 271 6.4 12.9 0.00 0.00 0.00 63 1018.0
20260906011956 21 252 6.4 12.9 0.00 0.00 0.00 63 1018.0
20260906011456 21 254 9.7 12.9 0.00 0.00 0.00 64 1018.0
20260906010956 21 264 8.0 11.3 0.00 0.00 0.00 65 1018.0
20260906010459 21 266 6.4 11.3 0.00 0.00 0.00 66 1018.0
20260906005956 21 248 8.0 9.7 0.00 0.00 0.00 67 1018.0
20260906005459 21 274 0.0 6.4 0.00 0.00 0.00 67 1018.0
20260906004956 21 283 0.0 6.4 0.00 0.00 0.00 67 1018.0
20260906004456 21 277 0.0 8.0 0.00 0.00 0.00 67 1018.0
20260906003956 21 292 0.0 9.7 0.00 0.00 0.00 67 1018.0
20260906003459 21 288 0.0 3.2 0.00 0.00 0.00 68 1018.0
20260906002956 21 302 3.2 6.4 0.00 0.00 0.00 68 1018.0
20260906002456 21 282 0.0 8.0 0.00 0.00 0.00 68 1018.0
20260906001956 21 286 6.4 9.7 0.00 0.00 0.00 68 1018.0
20260906001456 21 247 6.4 8.0 0.00 0.00 0.00 69 1018.0
20260906000959 21 264 0.0 8.0 0.00 0.00 0.00 69 1018.0
20260906000459 21 282 4.8 8.0 0.00 0.00 0.00 69 1018.0
20260906000000 21 267 6.4 9.7 0.00 0.00 0.00 70 1018.0
20260905235458 21 257 4.8 9.7 0.00 0.00 0.00 70 1018.0
20260905234956 21 291 3.2 8.0 0.00 0.00 0.00 69 1018.0
20260905234500 21 260 6.4 11.3 0.00 0.00 0.00 68 1018.0
20260905233956 21 259 6.4 11.3 0.00 0.00 0.00 68 1018.0
20260905233456 21 268 8.0 12.9 0.00 0.00 0.00 68 1018.0
20260905232956 21 286 0.0 11.3 0.00 0.00 0.00 69 1018.0
20260905232457 21 251 0.0 9.7 0.00 0.00 0.00 70 1018.0
20260905231956 21 287 0.0 0.0 0.00 0.00 0.00 71 1018.0
20260905231456 21 280 0.0 0.0 0.00 0.00 0.00 71 1018.0
20260905230956 21 259 0.0 0.0 0.00 0.00 0.00 71 1018.0
20260905230456 21 284 0.0 11.3 0.00 0.00 0.00 72 1018.0
20260905225959 21 265 6.4 8.0 0.00 0.00 0.00 72 1018.0
20260905225456 21 274 3.2 4.8 0.00 0.00 0.00 72 1018.0
20260905224957 21 257 3.2 8.0 0.00 0.00 0.00 72 1018.0
20260905224456 21 271 0.0 6.4 0.00 0.00 0.00 72 1018.0
20260905223956 21 252 6.4 6.4 0.00 0.00 0.00 72 1018.0
20260905223456 21 265 4.8 8.0 0.00 0.00 0.00 72 1018.0
20260905222956 21 283 4.8 6.4 0.00 0.00 0.00 72 1018.0
20260905222456 21 290 3.2 8.0 0.00 0.00 0.00 72 1018.0
20260905221956 21 302 0.0 8.0 0.00 0.00 0.00 72 1018.0
20260905221456 21 266 0.0 8.0 0.00 0.00 0.00 72 1018.0
20260905220959 21 264 6.4 9.7 0.00 0.00 0.00 72 1018.0
20260905220456 21 279 6.4 9.7 0.00 0.00 0.00 72 1018.0
20260905215956 21 282 0.0 0.0 0.00 0.00 0.00 72 1018.0
20260905215459 22 301 0.0 0.0 0.00 0.00 0.00 72 1018.0
20260905214956 22 260 0.0 0.0 0.00 0.00 0.00 72 1018.0
20260905214459 22 243 0.0 0.0 0.00 0.00 0.00 72 1018.0
20260905213956 22 261 0.0 0.0 0.00 0.00 0.00 72 1018.0
20260905213459 22 308 0.0 0.0 0.00 0.00 0.00 72 1018.0
20260905212956 22 267 0.0 0.0 0.00 0.00 0.00 72 1018.0
20260905212456 22 304 0.0 0.0 0.00 0.00 0.00 74 1018.0
20260905211956 22 289 0.0 0.0 0.00 0.00 0.00 75 1018.0
20260905211459 22 276 0.0 0.0 0.00 0.00 0.00 75 1018.0
20260905210956 22 270 0.0 0.0 0.00 0.00 0.00 74 1018.0
20260905210456 22 304 0.0 0.0 0.00 0.00 0.00 74 1018.0
20260905205956 22 304 0.0 0.0 0.00 0.00 0.00 75 1018.0
20260905205456 22 304 0.0 0.0 0.00 0.00 0.00 76 1018.0
20260905204956 22 256 0.0 0.0 0.00 0.00 0.00 75 1018.0
20260905204459 22 288 0.0 0.0 0.00 0.00 0.00 74 1018.0
20260905203957 22 264 0.0 0.0 0.00 0.00 0.00 74 1018.0
20260905203456 22 309 0.0 0.0 0.00 0.00 0.00 74 1018.0
20260905202959 22 307 0.0 0.0 0.00 0.00 0.00 74 1018.0
20260905202456 22 302 0.0 0.0 0.00 0.00 0.00 73 1018.0
20260905201956 22 316 0.0 0.0 0.00 0.00 0.00 73 1018.0
20260905201458 22 310 0.0 0.0 0.00 0.00 0.00 73 1018.0
20260905200956 22 312 0.0 0.0 0.00 0.00 0.00 72 1018.0
20260905200456 22 292 0.0 0.0 0.00 0.00 0.00 72 1018.0
20260905195956 22 308 0.0 0.0 0.00 0.00 0.00 71 1018.0
20260905195459 22 313 0.0 0.0 0.00 0.00 0.00 71 1018.0
20260905194956 23 316 0.0 0.0 0.00 0.00 0.00 71 1018.0
20260905194459 23 302 0.0 0.0 0.00 0.00 0.00 70 1018.0
20260905193955 23 310 0.0 0.0 0.00 0.00 0.00 70 1018.0
20260905193456 23 309 0.0 0.0 0.00 0.00 0.00 69 1017.0
20260905192959 23 314 0.0 0.0 0.00 0.00 0.00 69 1017.0
20260905192455 23 305 0.0 0.0 0.00 0.00 0.00 69 1017.0
20260905191955 23 325 0.0 0.0 0.00 0.00 0.00 69 1017.0
20260905191457 23 312 0.0 0.0 0.00 0.00 0.00 68 1017.0
20260905190956 23 318 0.0 0.0 0.00 0.00 0.00 67 1017.0
20260905190456 23 318 0.0 0.0 0.00 0.00 0.00 65 1017.0
20260905185956 23 307 0.0 0.0 0.00 0.00 0.00 66 1017.0
20260905185456 24 300 0.0 0.0 0.00 0.00 0.00 63 1017.0
20260905184955 24 313 0.0 0.0 0.00 0.00 0.00 64 1017.0
20260905184455 25 322 0.0 0.0 0.00 0.00 0.00 63 1017.0
20260905183958 24 329 0.0 0.0 0.00 0.00 0.00 61 1017.0
20260905183455 25 333 0.0 0.0 0.00 0.00 0.00 60 1017.0
20260905182955 25 331 0.0 0.0 0.00 0.00 0.00 59 1017.0
20260905182458 25 332 0.0 0.0 0.00 0.00 0.00 58 1017.0
20260905181955 26 326 0.0 0.0 0.00 0.00 0.00 58 1017.0
20260905181455 26 326 0.0 0.0 0.00 0.00 0.00 57 1017.0
20260905180955 26 299 0.0 0.0 0.00 0.00 0.00 56 1017.0
20260905180458 26 45 0.0 0.0 0.00 0.00 0.00 56 1017.0
20260905175955 26 70 0.0 0.0 0.00 0.00 0.00 54 1017.0
20260905175459 27 70 0.0 0.0 0.00 0.00 0.00 53 1017.0
20260905174955 27 71 0.0 0.0 0.00 0.00 0.00 52 1017.0
20260905174455 27 71 0.0 0.0 0.00 0.00 0.00 51 1017.0
20260905173955 28 71 0.0 0.0 0.00 0.00 0.00 51 1017.0
20260905173458 28 71 0.0 0.0 0.00 0.00 0.00 51 1017.0
20260905172955 28 71 0.0 0.0 0.00 0.00 0.00 51 1017.0
20260905172455 28 71 0.0 0.0 0.00 0.00 0.00 50 1017.0
20260905171955 28 71 0.0 0.0 0.00 0.00 0.00 50 1016.0
20260905171455 29 72 0.0 0.0 0.00 0.00 0.00 49 1016.0
20260905170955 29 90 0.0 0.0 0.00 0.00 0.00 49 1016.0
20260905170455 29 92 0.0 0.0 0.00 0.00 0.00 49 1016.0
20260905165958 30 95 0.0 0.0 0.00 0.00 0.00 47 1016.0
20260905165458 30 108 0.0 0.0 0.00 0.00 0.00 47 1016.0
20260905164955 30 94 0.0 0.0 0.00 0.00 0.00 46 1016.0
20260905164455 30 88 0.0 0.0 0.00 0.00 0.00 46 1016.0
20260905163958 30 107 0.0 0.0 0.00 0.00 0.00 45 1016.0
20260905163458 30 85 0.0 0.0 0.00 0.00 0.00 45 1016.0
20260905162955 30 112 0.0 0.0 0.00 0.00 0.00 48 1016.0
20260905162455 31 103 0.0 12.9 0.00 0.00 0.00 50 1016.0
20260905161955 31 96 9.7 12.9 0.00 0.00 0.00 51 1016.0
20260905161455 31 89 0.0 16.1 0.00 0.00 0.00 50 1016.0
20260905160955 32 83 11.3 12.9 0.00 0.00 0.00 48 1016.0
20260905160455 32 96 3.2 12.9 0.00 0.00 0.00 46 1016.0
20260905155955 33 75 6.4 11.3 0.00 0.00 0.00 43 1016.0
20260905155455 33 123 0.0 9.7 0.00 0.00 0.00 38 1016.0
20260905154955 33 61 0.0 6.4 0.00 0.00 0.00 37 1016.0
20260905154455 33 44 0.0 6.4 0.00 0.00 0.00 37 1016.0
20260905153955 33 49 0.0 0.0 0.00 0.00 0.00 36 1016.0
20260905153455 34 57 0.0 0.0 0.00 0.00 0.00 37 1016.0
20260905152958 34 46 0.0 6.4 0.00 0.00 0.00 37 1016.0
20260905152455 34 88 0.0 9.7 0.00 0.00 0.00 36 1016.0
20260905151955 34 98 0.0 3.2 0.00 0.00 0.00 36 1016.0
20260905151455 34 84 0.0 9.7 0.00 0.00 0.00 36 1016.0
20260905150958 34 38 0.0 0.0 0.00 0.00 0.00 36 1016.0
20260905150455 34 79 0.0 3.2 0.00 0.00 0.00 35 1016.0
20260905145955 34 102 0.0 9.7 0.00 0.00 0.00 35 1016.0
20260905145458 34 139 0.0 0.0 0.00 0.00 0.00 34 1016.0
20260905144955 34 100 0.0 0.0 0.00 0.00 0.00 35 1016.0
20260905144456 34 79 0.0 0.0 0.00 0.00 0.00 36 1016.0
20260905143955 34 104 0.0 8.0 0.00 0.00 0.00 37 1016.0
20260905143455 34 122 3.2 8.0 0.00 0.00 0.00 37 1016.0
20260905142959 34 101 3.2 9.7 0.00 0.00 0.00 37 1016.0
20260905142455 34 119 0.0 9.7 0.00 0.00 0.00 37 1016.0
20260905141955 34 124 6.4 12.9 0.00 0.00 0.00 37 1016.0
20260905141458 34 95 0.0 12.9 0.00 0.00 0.00 37 1016.0
20260905140958 34 96 0.0 9.7 0.00 0.00 0.00 38 1016.0
20260905140455 34 110 8.0 11.3 0.00 0.00 0.00 38 1016.0
20260905135955 34 110 6.4 9.7 0.00 0.00 0.00 38 1016.0
20260905135455 34 105 0.0 0.0 0.00 0.00 0.00 38 1016.0
20260905134956 34 91 0.0 0.0 0.00 0.00 0.00 38 1016.0
20260905134458 34 68 0.0 12.9 0.00 0.00 0.00 38 1016.0
20260905133955 34 103 0.0 11.3 0.00 0.00 0.00 38 1016.0
20260905133459 33 22 0.0 0.0 0.00 0.00 0.00 38 1016.0
20260905132955 33 72 0.0 0.0 0.00 0.00 0.00 38 1016.0
20260905132455 33 24 0.0 0.0 0.00 0.00 0.00 39 1016.0
20260905131958 33 42 0.0 0.0 0.00 0.00 0.00 41 1016.0
20260905131455 33 6 6.4 12.9 0.00 0.00 0.00 42 1016.0
20260905130955 33 109 4.8 16.1 0.00 0.00 0.00 41 1016.0
20260905130455 33 97 9.7 16.1 0.00 0.00 0.00 42 1016.0
20260905125955 33 115 9.7 16.1 0.00 0.00 0.00 42 1016.0
20260905125455 33 129 11.3 16.1 0.00 0.00 0.00 43 1016.0
20260905124955 33 87 11.3 16.1 0.00 0.00 0.00 42 1016.0
20260905124455 33 100 12.9 19.3 0.00 0.00 0.00 41 1016.0
20260905123955 33 110 11.3 16.1 0.00 0.00 0.00 40 1016.0
20260905123455 34 111 12.9 16.1 0.00 0.00 0.00 40 1016.0
20260905122955 34 107 11.3 17.7 0.00 0.00 0.00 39 1016.0
20260905122455 34 111 12.9 17.7 0.00 0.00 0.00 37 1016.0
20260905121958 34 108 9.7 16.1 0.00 0.00 0.00 37 1016.0
20260905121458 35 111 12.9 19.3 0.00 0.00 0.00 37 1016.0
20260905120957 35 110 6.4 12.9 0.00 0.00 0.00 34 1016.0
20260905120455 35 47 6.4 16.1 0.00 0.00 0.00 32 1016.0
20260905115958 35 75 11.3 12.9 0.00 0.00 0.00 31 1016.0
20260905115455 35 114 12.9 17.7 0.00 0.00 0.00 31 1016.0
20260905114955 36 79 12.9 19.3 0.00 0.00 0.00 30 1016.0
20260905114455 36 109 12.9 16.1 0.00 0.00 0.00 30 1016.0
20260905113955 36 111 8.0 16.1 0.00 0.00 0.00 30 1016.0
20260905113456 36 97 8.0 16.1 0.00 0.00 0.00 30 1016.0
20260905112955 35 81 11.3 16.1 0.00 0.00 0.00 30 1016.0
20260905112455 35 85 8.0 16.1 0.00 0.00 0.00 30 1016.0
20260905111956 35 119 8.0 14.5 0.00 0.00 0.00 30 1016.0
20260905111455 35 56 0.0 12.9 0.00 0.00 0.00 30 1016.0
20260905110955 35 115 8.0 12.9 0.00 0.00 0.00 30 1016.0
20260905110458 35 97 0.0 12.9 0.00 0.00 0.00 30 1016.0
20260905105955 35 45 8.0 16.1 0.00 0.00 0.00 30 1016.0
20260905105455 35 55 9.7 12.9 0.00 0.00 0.00 31 1016.0
20260905104955 35 108 9.7 12.9 0.00 0.00 0.00 31 1016.0
20260905104456 35 116 11.3 12.9 0.00 0.00 0.00 31 1016.0
20260905103955 35 97 4.8 12.9 0.00 0.00 0.00 31 1016.0
20260905103455 35 95 11.3 16.1 0.00 0.00 0.00 31 1016.0
20260905102958 35 95 0.0 0.0 0.00 0.00 0.00 31 1016.0
20260905102456 35 66 0.0 0.0 0.00 0.00 0.00 31 1016.0
20260905101955 35 78 0.0 11.3 0.00 0.00 0.00 32 1017.0
20260905101458 35 79 6.4 12.9 0.00 0.00 0.00 32 1017.0
20260905100955 35 84 0.0 12.9 0.00 0.00 0.00 31 1017.0
20260905100455 35 91 8.0 12.9 0.00 0.00 0.00 31 1017.0
20260905095955 35 97 6.4 12.9 0.00 0.00 0.00 31 1017.0
20260905095458 34 71 6.4 12.9 0.00 0.00 0.00 32 1017.0
20260905094955 34 87 11.3 12.9 0.00 0.00 0.00 32 1017.0
20260905094455 34 97 9.7 12.9 0.00 0.00 0.00 32 1017.0
20260905093955 34 97 11.3 14.5 0.00 0.00 0.00 33 1017.0
20260905093455 34 65 0.0 0.0 0.00 0.00 0.00 33 1017.0
20260905092955 33 57 0.0 6.4 0.00 0.00 0.00 33 1017.0
20260905092455 33 72 6.4 9.7 0.00 0.00 0.00 34 1017.0
20260905091954 33 80 0.0 0.0 0.00 0.00 0.00 35 1017.0
20260905091456 33 77 4.8 9.7 0.00 0.00 0.00 37 1017.0
20260905090955 33 78 6.4 8.0 0.00 0.00 0.00 37 1017.0
20260905090458 32 78 3.2 9.7 0.00 0.00 0.00 37 1017.0
20260905085957 32 93 3.2 9.7 0.00 0.00 0.00 38 1017.0
20260905085455 32 74 6.4 12.9 0.00 0.00 0.00 38 1017.0
20260905084954 32 103 8.0 12.9 0.00 0.00 0.00 38 1017.0
20260905084454 32 123 4.8 9.7 0.00 0.00 0.00 38 1017.0
20260905083955 32 95 4.8 9.7 0.00 0.00 0.00 38 1017.0
20260905083455 31 107 0.0 6.4 0.00 0.00 0.00 39 1017.0
20260905082954 31 98 0.0 11.3 0.00 0.00 0.00 39 1017.0
20260905082454 31 114 6.4 9.7 0.00 0.00 0.00 39 1017.0
20260905081956 31 108 8.0 12.9 0.00 0.00 0.00 39 1017.0
20260905081454 31 137 0.0 0.0 0.00 0.00 0.00 39 1017.0
20260905080955 31 100 0.0 0.0 0.00 0.00 0.00 39 1017.0
20260905080459 31 91 0.0 0.0 0.00 0.00 0.00 39 1017.0
20260905075955 30 87 0.0 0.0 0.00 0.00 0.00 39 1017.0
20260905075454 30 98 0.0 12.9 0.00 0.00 0.00 40 1017.0
20260905074955 30 83 9.7 9.7 0.00 0.00 0.00 40 1017.0
20260905074454 30 94 8.0 9.7 0.00 0.00 0.00 40 1017.0
20260905073954 30 98 3.2 9.7 0.00 0.00 0.00 41 1017.0
20260905073455 29 92 0.0 8.0 0.00 0.00 0.00 43 1017.0
20260905072954 29 60 0.0 3.2 0.00 0.00 0.00 44 1017.0
20260905072454 29 85 0.0 0.0 0.00 0.00 0.00 44 1017.0
20260905071957 29 100 0.0 0.0 0.00 0.00 0.00 44 1017.0
20260905071455 28 103 0.0 0.0 0.00 0.00 0.00 43 1017.0
20260905070955 28 266 0.0 0.0 0.00 0.00 0.00 42 1017.0
20260905070454 27 232 0.0 0.0 0.00 0.00 0.00 43 1017.0
20260905065957 27 223 0.0 0.0 0.00 0.00 0.00 43 1017.0
20260905065455 26 238 0.0 0.0 0.00 0.00 0.00 44 1017.0
20260905064955 26 239 0.0 0.0 0.00 0.00 0.00 46 1017.0
20260905064454 26 212 0.0 0.0 0.00 0.00 0.00 47 1017.0
20260905063954 25 212 0.0 0.0 0.00 0.00 0.00 47 1017.0
20260905063454 25 211 0.0 0.0 0.00 0.00 0.00 47 1017.0
20260905062954 25 225 0.0 0.0 0.00 0.00 0.00 48 1017.0
20260905062454 24 263 0.0 9.7 0.00 0.00 0.00 49 1017.0
20260905061954 23 280 0.0 8.0 0.00 0.00 0.00 51 1017.0
20260905061454 23 256 0.0 0.0 0.00 0.00 0.00 51 1017.0
20260905060954 23 220 0.0 0.0 0.00 0.00 0.00 51 1017.0
20260905060454 22 209 0.0 0.0 0.00 0.00 0.00 52 1017.0
20260905055954 22 253 0.0 0.0 0.00 0.00 0.00 52 1017.0
20260905055455 22 229 0.0 8.0 0.00 0.00 0.00 52 1017.0
20260905054955 22 230 4.8 9.7 0.00 0.00 0.00 52 1017.0
20260905054454 22 263 0.0 9.7 0.00 0.00 0.00 52 1017.0
20260905053954 22 210 0.0 0.0 0.00 0.00 0.00 52 1017.0
20260905053457 21 270 0.0 0.0 0.00 0.00 0.00 54 1016.0
20260905052957 21 264 0.0 0.0 0.00 0.00 0.00 54 1016.0